Weather History for Chippewa, MI

Change the Weather History Date:

Sunday, January 20, 2013

  Actual Average Record
Temperature  
Mean Temperature 12 °F -  
Max Temperature 21 °F 23 °F 36 °F (1991)
Min Temperature 0 °F 3 °F -22 °F (1985)
Degree Days  
Heating Degree Days 54    
Moisture  
Dew Point 7 °F    
Average Humidity 89    
Maximum Humidity 100    
Minimum Humidity 67    
Precipitation  
Precipitation 0.01 in - - ()
Sea Level Pressure  
Sea Level Pressure 29.86 in    
Wind  
Wind Speed 16 mph (WNW)    
Max Wind Speed 32 mph    
Max Gust Speed 44 mph    
Visibility 5 miles    
Events      
Averages and records for this station are not official NWS values.
T = Trace of Precipitation, MM = Missing Value Source: NWS Daily Summary

Daily Weather History Graph

Daily Weather History Graph

Search for Another Location

Airport:

Trip Planner

Search our weather history database for the weather conditions in past years. The results will help you decide how hot, cold, wet, or windy it might be!

Date:

Astronomy

Jan. 20, 2013 Rise Set
Actual Time 8:12 AM EST 5:25 PM EST
Civil Twilight 7:39 AM EST 5:58 PM EST
Nautical Twilight 7:02 AM EST 6:35 PM EST
Astronomical Twilight 6:27 AM EST 7:11 PM EST
Moon 12:27 PM EST (1/20) 2:42 AM EST (1/20)
Length of Visible Light 10h 19m
Length of Day
9h 12m
Waxing Gibbous, 66% of the Moon is Illuminated
Jan 20
Waxing Gibbous
Jan 26
Full
Feb 3
Last Quarter
Feb 10
New
Feb 17
First Quarter

Hourly Weather History & Observations

Time (EST) Temp. Windchill Dew Point Humidity Pressure Visibility Wind Dir Wind Speed Gust Speed Precip Events Conditions
12:15 AM 23.0 °F 9.2 °F 19.4 °F 86% 29.35 in 10.0 mi West 17.3 mph 27.6 mph N/A   Overcast
12:35 AM 23.0 °F 9.6 °F 19.4 °F 86% 29.34 in 10.0 mi West 16.1 mph 23.0 mph N/A   Mostly Cloudy
12:55 AM 21.2 °F 8.9 °F 19.4 °F 93% 29.34 in 10.0 mi West 12.7 mph 20.7 mph N/A   Scattered Clouds
1:15 AM 21.2 °F 7.8 °F 19.4 °F 93% 29.35 in 10.0 mi West 15.0 mph - N/A   Mostly Cloudy
1:35 AM 21.2 °F 5.6 °F 21.2 °F 100% 29.37 in 3.0 mi West 20.7 mph 26.5 mph N/A   Overcast
1:55 AM 21.2 °F 3.0 °F 19.4 °F 93% 29.38 in 2.0 mi WNW 29.9 mph 43.7 mph N/A   Overcast
2:15 AM 19.4 °F 2.5 °F 15.8 °F 86% 29.41 in 2.0 mi WNW 23.0 mph 39.1 mph N/A   Overcast
2:35 AM 17.6 °F -2.5 °F 14.0 °F 86% 29.42 in 2.0 mi WNW 32.2 mph 40.3 mph N/A   Overcast
2:55 AM 15.8 °F -3.4 °F 12.2 °F 86% 29.46 in 1.8 mi NW 26.5 mph 34.5 mph N/A   Overcast
3:15 AM 14.0 °F -5.5 °F 12.2 °F 93% 29.49 in 1.2 mi NW 25.3 mph 36.8 mph N/A   Overcast
3:35 AM 12.2 °F -5.8 °F 12.2 °F 100% 29.54 in 1.0 mi NW 19.6 mph 27.6 mph N/A   Overcast
3:55 AM 12.2 °F -8.2 °F 10.4 °F 92% 29.55 in 0.8 mi NW 26.5 mph 32.2 mph N/A   Overcast
4:15 AM 12.2 °F -6.7 °F 10.4 °F 92% 29.58 in 1.0 mi NW 21.9 mph 28.8 mph N/A   Overcast
4:35 AM 10.4 °F -11.0 °F 8.6 °F 92% 29.59 in 1.0 mi NW 27.6 mph 38.0 mph N/A   Overcast
4:55 AM 8.6 °F -10.5 °F 6.8 °F 92% 29.64 in 1.0 mi NW 19.6 mph 33.4 mph N/A   Overcast
5:15 AM 8.6 °F -11.0 °F 6.8 °F 92% 29.66 in 2.0 mi NW 20.7 mph 29.9 mph N/A   Overcast
5:35 AM 6.8 °F -12.4 °F 3.2 °F 85% 29.70 in 4.0 mi NNW 18.4 mph 24.2 mph N/A   Overcast
5:55 AM 6.8 °F -11.8 °F 5.0 °F 92% 29.72 in 1.8 mi NW 17.3 mph 21.9 mph N/A   Overcast
6:15 AM 8.6 °F -9.5 °F 6.8 °F 92% 29.75 in 1.5 mi NW 17.3 mph 23.0 mph N/A   Overcast
6:35 AM 8.6 °F -11.4 °F 5.0 °F 85% 29.76 in 4.0 mi NW 21.9 mph 26.5 mph N/A   Overcast
6:55 AM 8.6 °F -10.5 °F 5.0 °F 85% 29.78 in 3.0 mi NW 19.6 mph 25.3 mph N/A   Overcast
7:15 AM 8.6 °F -11.4 °F 5.0 °F 85% 29.80 in 2.0 mi NNW 21.9 mph 27.6 mph N/A   Overcast
7:35 AM 8.6 °F -9.5 °F 5.0 °F 85% 29.81 in 2.5 mi NNW 17.3 mph 27.6 mph N/A   Overcast
7:55 AM 8.6 °F -9.5 °F 5.0 °F 85% 29.84 in 2.0 mi NNW 17.3 mph 26.5 mph N/A   Overcast
8:15 AM 6.8 °F -7.8 °F 3.2 °F 85% 29.85 in 2.5 mi North 10.4 mph - N/A   Overcast
8:35 AM 6.8 °F -5.9 °F 3.2 °F 85% 29.87 in 2.5 mi North 8.1 mph - N/A   Overcast
8:55 AM 6.8 °F -3.5 °F 3.2 °F 85% 29.90 in 5.0 mi North 5.8 mph - N/A   Overcast
9:15 AM 6.8 °F -0.1 °F 3.2 °F 85% 29.92 in 5.0 mi North 3.5 mph - N/A   Overcast
9:35 AM 8.6 °F -8.3 °F 5.0 °F 85% 29.93 in 2.5 mi NW 15.0 mph 18.4 mph N/A   Overcast
9:55 AM 8.6 °F -8.3 °F 6.8 °F 92% 29.95 in 1.0 mi NW 15.0 mph - N/A   Overcast
10:15 AM 8.6 °F -7.7 °F 6.8 °F 92% 29.96 in 0.5 mi NW 13.8 mph 20.7 mph N/A   Overcast
10:35 AM 8.6 °F -7.7 °F 6.8 °F 92% 29.97 in 0.2 mi NW 13.8 mph - N/A   Overcast
10:55 AM 8.6 °F -8.3 °F 6.8 °F 92% 29.98 in 0.2 mi NW 15.0 mph - N/A   Overcast
11:15 AM 8.6 °F -8.3 °F 6.8 °F 92% 29.99 in 0.2 mi NNW 15.0 mph 19.6 mph N/A   Overcast
11:35 AM 8.6 °F -7.7 °F 6.8 °F 92% 29.99 in 1.2 mi NNW 13.8 mph - N/A   Overcast
11:55 AM 8.6 °F -1.3 °F 6.8 °F 92% 30.00 in 1.0 mi NNE 5.8 mph - N/A   Overcast
12:15 PM 8.6 °F -2.6 °F 6.8 °F 92% 29.99 in 1.2 mi NNW 6.9 mph - N/A   Overcast
12:35 PM 12.2 °F -3.1 °F 3.2 °F 67% 29.99 in 1.8 mi WNW 13.8 mph 27.6 mph N/A   Overcast
12:55 PM 10.4 °F -6.6 °F 3.2 °F 73% 29.98 in 1.8 mi NW 16.1 mph 24.2 mph N/A   Overcast
1:15 PM 10.4 °F -6.0 °F 5.0 °F 79% 29.98 in 1.2 mi NW 15.0 mph 24.2 mph N/A   Overcast
1:35 PM 10.4 °F -7.2 °F 5.0 °F 79% 29.99 in 1.8 mi WNW 17.3 mph 24.2 mph N/A   Overcast
1:55 PM 10.4 °F -5.4 °F 6.8 °F 85% 29.99 in 0.8 mi WNW 13.8 mph 19.6 mph N/A   Overcast
2:15 PM 10.4 °F -7.7 °F 6.8 °F 85% 29.99 in 2.5 mi WNW 18.4 mph 25.3 mph N/A   Overcast
2:35 PM 10.4 °F -5.4 °F 6.8 °F 85% 29.99 in 0.5 mi WNW 13.8 mph 18.4 mph N/A   Overcast
2:55 PM 10.4 °F -6.0 °F 6.8 °F 85% 30.00 in 2.5 mi WNW 15.0 mph - N/A   Mostly Cloudy
3:15 PM 10.4 °F -4.8 °F 6.8 °F 85% 30.01 in 1.0 mi WNW 12.7 mph - N/A   Overcast
3:35 PM 10.4 °F -5.4 °F 8.6 °F 92% 30.00 in 1.0 mi WNW 13.8 mph 17.3 mph N/A   Overcast
3:55 PM 12.2 °F -3.1 °F 8.6 °F 85% 30.01 in 0.8 mi WNW 13.8 mph - N/A   Overcast
4:15 PM 10.4 °F -1.5 °F 8.6 °F 92% 30.02 in 3.0 mi WNW 8.1 mph - N/A   Overcast
4:35 PM 10.4 °F -4.1 °F 8.6 °F 92% 30.03 in 1.5 mi West 11.5 mph - N/A   Overcast
4:55 PM 10.4 °F -6.6 °F 6.8 °F 85% 30.03 in 10.0 mi West 16.1 mph 21.9 mph N/A   Mostly Cloudy
5:15 PM 10.4 °F -6.0 °F 6.8 °F 85% 30.03 in 4.0 mi West 15.0 mph - N/A   Mostly Cloudy
5:35 PM 8.6 °F -3.7 °F 5.0 °F 85% 30.04 in 10.0 mi West 8.1 mph - N/A   Scattered Clouds
5:55 PM 6.8 °F -8.6 °F 5.0 °F 92% 30.04 in 10.0 mi West 11.5 mph - N/A   Partly Cloudy
6:15 PM 8.6 °F -4.7 °F 5.0 °F 85% 30.04 in 10.0 mi West 9.2 mph - N/A   Mostly Cloudy
6:35 PM 6.8 °F -4.8 °F 5.0 °F 92% 30.04 in 10.0 mi West 6.9 mph - N/A   Mostly Cloudy
6:55 PM 6.8 °F -6.9 °F 3.2 °F 85% 30.05 in 10.0 mi West 9.2 mph - N/A   Mostly Cloudy
7:15 PM 6.8 °F -5.9 °F 5.0 °F 92% 30.04 in 10.0 mi WSW 8.1 mph - N/A   Mostly Cloudy
7:35 PM 5.0 °F -10.0 °F 3.2 °F 92% 30.04 in 10.0 mi West 10.4 mph - N/A   Partly Cloudy
7:55 PM 5.0 °F -8.1 °F 3.2 °F 92% 30.04 in 10.0 mi WSW 8.1 mph - N/A   Partly Cloudy
8:15 PM 5.0 °F -9.1 °F 3.2 °F 92% 30.04 in 10.0 mi WSW 9.2 mph - N/A   Partly Cloudy
8:35 PM 3.2 °F -10.3 °F 3.2 °F 100% 30.04 in 10.0 mi WSW 8.1 mph - N/A   Partly Cloudy
8:55 PM 3.2 °F -10.3 °F 3.2 °F 100% 30.04 in 9.0 mi West 8.1 mph - N/A   Mostly Cloudy
9:15 PM 3.2 °F -12.2 °F 3.2 °F 100% 30.03 in 10.0 mi West 10.4 mph - N/A   Mostly Cloudy
9:35 PM 3.2 °F -12.2 °F 1.4 °F 92% 30.03 in 10.0 mi West 10.4 mph - N/A   Mostly Cloudy
9:55 PM 3.2 °F -11.3 °F 1.4 °F 92% 30.03 in 10.0 mi WSW 9.2 mph - N/A   Partly Cloudy
10:15 PM 3.2 °F -12.2 °F 1.4 °F 92% 30.03 in 10.0 mi WSW 10.4 mph - N/A   Clear
10:35 PM 1.4 °F -14.5 °F -0.4 °F 92% 30.03 in 10.0 mi West 10.4 mph - N/A   Clear
10:55 PM 1.4 °F -11.3 °F -0.4 °F 92% 30.03 in 10.0 mi WSW 6.9 mph - N/A   Clear
11:15 PM 1.4 °F -8.3 °F -0.4 °F 92% 30.02 in 10.0 mi WSW 4.6 mph - N/A   Clear
11:35 PM -0.4 °F -8.3 °F -2.2 °F 92% 30.02 in 10.0 mi WNW 3.5 mph - N/A   Clear
11:55 PM -0.4 °F -8.3 °F -2.2 °F 92% 30.02 in 10.0 mi WSW 3.5 mph - N/A   Scattered Clouds